Orbital Elements at Epoch 2459000.5 (2020-May-31.0) TDB
Reference: JPL 19 (heliocentric ecliptic J2000)
Element | Value | Uncertainty (1-sigma) | Units |
e | .09628869252392559 | 3.0222e-08 | |
a | 2.533594430791025 | 1.2964e-08 | au |
q | 2.289637935664258 | 8.0355e-08 | au |
i | 13.44508550037981 | 8.6746e-06 | deg |
node | 166.9070340962386 | 2.2215e-05 | deg |
peri | 292.7608928665581 | 9.6693e-05 | deg |
M | 348.283550650087 | 8.958e-05 | deg |
tp | 2459048.439951364386 (2020-Jul-17.93995136) | 0.00036659 | TDB |
period | 1473.004489308626 4.03 | 1.1306e-05 3.095e-08 | d yr |
n | .2443984404752023 | 1.8758e-09 | deg/d |
Q | 2.777550925917793 | 1.4212e-08 | au |
|
| | Orbit Determination Parameters
Additional Information
|